Regional Weather Roundup
Issued by NWS Charleston, SC

Current Version | Previous Version | Text Only | Print | Product List | Glossary Off
Versions: 1 2 3 4 5 6 7 8 9 10 11 12 13 14 15 16 17 18 19 20 21 22 23 24 25 26 27 28 29 30 31 32 33 34 35 36 37 38 39 40 41 42 43 44 45 46 47 48 49 50
000 ASUS42 KCHS 050312 RWRCHS REGIONAL WEATHER ROUNDUP NATIONAL WEATHER SERVICE CHARLESTON SC 1100 PM EDT FRI SEP 04 2015 NOTE: "FAIR" INDICATES FEW OR NO CLOUDS BELOW 12,000 FEET WITH NO SIGNIFICANT WEATHER AND/OR OBSTRUCTIONS TO VISIBILITY. NOT ALL STATIONS ARE QUALITY CONTROLLED BY THE NATIONAL WEATHER SERVICE. USE DATA WITH CAUTION...ESPECIALLY DEWPOINT OBSERVATIONS. SCZ027-030-031-034>040-042>050-050400- ...SOUTHEAST SOUTH CAROLINA... CITY SKY/WX TMP DP RH WIND PRES REMARKS N CHARLESTON PTCLDY 75 70 84 CALM 30.01R WATERFRONT PRK N/A 79 76 91 VRB2 29.98R MOUNT PLEASANT FAIR 75 75 100 CALM 30.01R FOG JOHNS ISLAND FAIR 75 73 94 CALM 30.01R PINOPOLIS N/A 81 75 83 VRB2 29.94R MONCKS CORNER FAIR 75 72 88 CALM 30.02R SUMMERVILLE FAIR 73 73 100 CALM 30.03R BEAUFORT MCAS CLEAR 75 73 93 CALM 30.01R BEAUFORT ARPT FAIR 75 75 100 CALM 30.00S HILTON HEAD IS CLEAR 75 75 100 CALM 30.01S WALTERBORO PTCLDY 73 70 88 CALM 30.03R ALLENDALE FAIR 73 72 94 CALM 30.02R ...SOUTHERN MIDLANDS AND PEE DEE... CITY SKY/WX TMP DP RH WIND PRES REMARKS GEORGETOWN NOT AVBL KINGSTREE NOT AVBL ORANGEBURG CLEAR 74 71 91 W3 30.03R BARNWELL FAIR 75 73 94 CALM 30.04R AIKEN FAIR 75 68 78 CALM 30.06R MANNING FAIR 73 72 94 CALM 30.02S COLUMBIA MOCLDY 81 70 69 CALM 30.02R SUMTER MOCLDY 78 69 72 S1 30.01R FLORENCE MOCLDY 71 69 93 SW8 30.03R THUNDER MYRTLE BEACH NOT AVBL N MYRTLE BEACH PTCLDY 76 71 85 N3 30.01F $$ GAZ063-065-086>088-099>101-113>116-118-119-134>141-150-050400- ...SOUTHEAST GEORGIA... CITY SKY/WX TMP DP RH WIND PRES REMARKS SAVANNAH ARPT MOCLDY 75 72 90 CALM 30.01R HUNTER AAF CLEAR 75 75 100 SE1 29.98S FORT STEWART CLEAR 76 72 87 CALM 29.99R STATESBORO CLEAR 73 32 22 CALM 30.01S SYLVANIA NOT AVBL CLAXTON NOT AVBL ...CSRA...CENTRAL AND FAR SOUTHEAST GEORGIA... CITY SKY/WX TMP DP RH WIND PRES REMARKS THOMSON CLEAR 77 75 95 CALM 30.07R AUGUSTA-BUSH CLEAR 73 72 96 E3 30.01R AUGUSTA-DANIEL CLEAR 79 71 76 E3 30.03R SWAINSBORO FAIR 73 72 94 CALM 30.02R VIDALIA MOCLDY 77 72 83 CALM 30.02R EASTMAN FAIR 75 75 100 CALM 30.04R HAZLEHURST FAIR 77 76 95 S3 30.01R ALMA PTCLDY 73 71 93 CALM 30.01R WAYCROSS MOCLDY 76 76 99 CALM 30.01R JESUP FAIR 77 73 88 CALM 30.01S BAXLEY FAIR 75 73 94 CALM 30.01S BRUNSWICK MOCLDY 77 73 88 CALM 30.01R SAINT SIMONS CLOUDY 79 74 84 NW5 30.00R THUNDER $$ SCZ027-028-034-036>038-045-046-048>050-GAZ119-141-050400- ...LAKE AND SUPPLEMENTAL COASTAL OBSERVATIONS... STATION/POSITION TIME TEMP WIND PRES WAVE SWELL AIR SEA DIR/SP/G HT/PER HT/PER/DIR (UTC) (F) (DEG/KT/KT) (MB) (FT/S) (FT/S/D) UPR LAKE MARION NOT AVBL WINYAH BAY 0145 78 320/ 1 1015.0 LAKE MURRAY 0200 82 80/ 1/ 4 1015.6R ACE BASIN NERRS NOT AVBL FORT PULASKI 0200 79 83 50/ 2/ 3 1016.2R SAPELO ISLAND 0200 78 330/ 2 1016.0R $$ ANZ835-935-AMZ111-154-330-350-352-354-370-450-454-472-050400- ...C-MAN AND BUOY OBSERVATIONS... STATION/POSITION TIME TEMP WIND PRES WAVE SWELL AIR SEA DIR/SP/G HT/PER HT/PER/DIR (UTC) (F) (DEG/KT/KT) (MB) (FT/S) (FT/S/D) BUOY 41004 0250 82 85 40/ 6/ 6 1015.7R 1/ 6 BUOY 41008 0250 83 85 CALM / 2 1016.0R 1 FOLLY BEACH CMAN 0200 78 330/ 2/ 2 1015.8R CAPERS NEARSHORE 0208 82 90/ 4/ 6 1016.1R FRIPP NEARSHORE 0200 83 130/ 4/ 4 1015.3R STATION/POSITION TIME TEMP WIND PRES WAVE SWELL AIR SEA DIR/SP/G HT/PER HT/PER/DIR (UTC) (F) (DEG/KT/KT) (MB) (FT/S) (FT/S/D) 5E ST. MARYS GA 0221 86 N/A 1/12 FRYING PAN BUOY 0250 82 82 90/ 2/ 2 1016.2R 1/12 BUOY 41025 0250 78 84 50/ 19/ 23 1015.3F 3/ 4 CAPE LOOKOUT NC 0200 81 40/ 16/ 18 1015.8R BUOY 41002 0250 82 84 30/ 10/ 12 1014.4R 1/10 2/ 70/10 BUOY 41010 0220 83 85 20/ 8/ 10 1014.8R ST AUGUSTINE FL 0300 78 85 260/ 4/ 5 1016.3R $$

USA.gov is the U.S. government's official web portal to all federal, state and local government web resources and services.